Flag for Denmark Weather past 2 weeks in Aalborg, Denmark

Now
39 °F

Passing clouds.


Feels Like: 32 °F
Forecast: 34 / 39 °F
Wind: 12 mph from Northwest

Location: Aalborg Airport

Current Time: Jan 27, 2015 at 12:12:35 AM

Latest Report: Jan 26, 2015 at 11:20 PM


Visibility: N/A

Pressure: 29.71 "Hg

Humidity: 93%

Dew point: 37 °F

Location of AalborgLocation

Historic Weather in Aalborg — Graph

°F

Aalborg temperature yesterday

Maximum temperature yesterday: 41 °F (at 1:50 PM)
Minimum temperature yesterday: 37 °F (at 12:20 AM)
Average temperature yesterday: 39 °F

Past Weeks' High & Low Weather Summary

 TemperatureHumidityPressure
High46 °F (Jan 12, 2:20 PM)100% (Jan 14, 4:02 AM)30.24 "Hg (Jan 14, 4:02 AM)
Low28 °F (Jan 23, 5:50 AM)75% (Jan 25, 5:50 AM)29.06 "Hg (Jan 15, 10:50 PM)
Average37 °F92%29.73 "Hg
* Reported Jan 11 11:20 PM — Jan 26 11:20 PM, Aalborg, Weather by CustomWeather, © 2014

Note: Actual official high and low records may vary slightly from our data, if they occured in-between our weather recording intervals... More about our weather records

Advertising

Aalborg weather history for previous 24 hours

 ConditionsComfort  
Time TempWeatherWind HumidityBarometerVisibility
11:20 PM
Jan 26
39 °FPassing clouds.12 mph93%29.71 "HgN/A
10:50 PM39 °FPassing clouds.12 mph87%29.71 "HgN/A
10:20 PM39 °FPassing clouds.9 mph87%29.71 "HgN/A
9:50 PM39 °FPassing clouds.9 mph93%29.71 "HgN/A
9:20 PM39 °FPassing clouds.9 mph93%29.71 "HgN/A
8:50 PM39 °FPassing clouds.10 mph93%29.71 "HgN/A
8:20 PM37 °FPassing clouds.9 mph93%29.71 "HgN/A
7:50 PM37 °FPassing clouds.9 mph93%29.71 "HgN/A
7:20 PM37 °FPassing clouds.10 mph93%29.71 "HgN/A
6:50 PM39 °FPassing clouds.10 mph93%29.71 "HgN/A
6:20 PM39 °FClear.10 mph93%29.71 "Hg10 mi
5:50 PM39 °FPassing clouds.9 mph93%29.71 "HgN/A
5:20 PM41 °FPassing clouds.8 mph93%29.71 "HgN/A
4:50 PM41 °FPassing clouds.9 mph100%29.71 "HgN/A
4:20 PM41 °FPartly sunny.5 mph100%29.71 "HgN/A
3:50 PM39 °FLight rain. Partly sunny.2 mph100%29.71 "Hg4 mi
3:20 PM41 °FLight rain. Partly sunny.6 mph93%29.71 "Hg1 mi
2:50 PM41 °FRain. More clouds than sun.6 mph93%29.71 "Hg1 mi
2:20 PM39 °FRain. Partly sunny.5 mph100%29.71 "Hg2 mi
1:50 PM41 °FRain. Low clouds.8 mph93%29.71 "Hg4 mi
1:20 PM39 °FRain. Broken clouds.7 mph100%29.71 "Hg5 mi
12:50 PM39 °FLight rain. Partly sunny.9 mph100%29.74 "Hg4 mi
12:20 PM39 °FLight rain. Partly sunny.8 mph100%29.74 "Hg4 mi
11:50 AM39 °FDrizzle. Partly sunny.12 mph100%29.77 "Hg2 mi
11:20 AM39 °FDrizzle. More clouds than sun.10 mph100%29.77 "Hg1 mi
10:50 AM39 °FDrizzle. Mostly cloudy.13 mph100%29.80 "Hg1 mi
10:20 AM39 °FDrizzle. Mostly cloudy.13 mph100%29.80 "Hg1 mi
9:50 AM39 °FDrizzle. Low clouds.14 mph93%29.80 "Hg1 mi
9:20 AM39 °FFog.14 mph93%29.83 "Hg3 mi
8:50 AM39 °FFog.14 mph93%29.83 "Hg3 mi
8:20 AM39 °FMostly cloudy.14 mph93%29.86 "Hg3 mi
7:50 AM37 °FMostly cloudy.15 mph100%29.86 "Hg4 mi
7:20 AM39 °FPartly cloudy.14 mph93%29.86 "Hg3 mi
6:50 AM37 °FPartly cloudy.13 mph100%29.89 "Hg5 mi
6:20 AM37 °FDrizzle. Fog.13 mph100%29.89 "Hg2 mi
5:50 AM37 °FDrizzle. Fog.12 mph100%29.92 "Hg2 mi
5:20 AM37 °FDrizzle. Fog.13 mph100%29.92 "Hg1 mi
4:20 AM37 °FDrizzle. Fog.12 mph100%29.98 "Hg2 mi
4:04 AM37 °FDrizzle. Fog.12 mph100%29.98 "Hg2 mi
3:50 AM37 °FPassing clouds.12 mph100%29.98 "HgN/A
3:20 AM37 °FPassing clouds.12 mph100%30.01 "HgN/A
2:50 AM37 °FMostly cloudy.13 mph100%30.01 "HgN/A
2:20 AM37 °FMostly cloudy.14 mph100%30.04 "HgN/A
1:50 AM37 °FPassing clouds.13 mph100%30.04 "HgN/A
1:20 AM37 °FPartly cloudy.13 mph100%30.04 "HgN/A
12:50 AM37 °FPassing clouds.9 mph100%30.07 "HgN/A
12:20 AM37 °FPartly cloudy.9 mph93%30.07 "HgN/A
Weather by CustomWeather, © 2014

See weather overviewHow to use our weather pages